,

(GMT )
Manston

Weather History for EGMH - December, 2012

Change the Weather History Date:

Monday, December 3, 2012

  Actual Average Record
Temperature  
Mean Temperature 44 °F -  
Max Temperature 50 °F - - ()
Min Temperature 36 °F - - ()
Degree Days  
Heating Degree Days 21    
Moisture  
Dew Point 43 °F    
Average Humidity 91    
Maximum Humidity 100    
Minimum Humidity 80    
Precipitation  
Precipitation 0.16 in - - ()
Sea Level Pressure  
Sea Level Pressure 29.70 in    
Wind  
Wind Speed 11 mph ()    
Max Wind Speed 20 mph    
Max Gust Speed -    
Visibility 7.1 miles    
Events Rain    
T = Trace of Precipitation, MM = Missing Value Source: Averaged Metar Reports

Daily Weather History Graph

Daily Weather History Graph

Search for Another Location

Airport or City:

Trip Planner

Search our weather history database for the weather conditions in past years. The results will help you decide how hot, cold, wet, or windy it might be!

Date:

Astronomy

Dec. 03, 2012 Rise Set
Actual Time 7:40 AM GMT 3:48 PM GMT
Civil Twilight 7:01 AM GMT 4:27 PM GMT
Nautical Twilight 6:18 AM GMT 5:09 PM GMT
Astronomical Twilight 5:38 AM GMT 5:50 PM GMT
Moon 8:37 PM GMT (12/3) 10:40 AM GMT (12/3)
Length of Visible Light 9h 26m
Length of Day
8h 08m
Waning Gibbous, 80% of the Moon is Illuminated
Dec 3
Waning Gibbous
Dec 6
Last Quarter
Dec 13
New
Dec 20
First Quarter
Dec 28
Full

Hourly Weather History & Observations

Time (GMT) Temp. Windchill Dew Point Humidity Pressure Visibility Wind Dir Wind Speed Gust Speed Precip Events Conditions
2:50 AM 38 °F - 38 °F 100% 29.89 in 8 mi SSE 9.2 mph - - Rain Rain
5:50 AM 44 °F - 44 °F 97% 29.76 in 9 mi South 15.0 mph - - Rain Light Rain
7:20 AM 46.4 °F 43.5 °F 44.6 °F 93% 29.71 in 6.2 mi SW 5.8 mph - N/A Rain Light Rain
7:50 AM 48.2 °F - 46.4 °F 93% 29.71 in 6.2 mi WSW 12.7 mph - N/A   Mostly Cloudy
8:20 AM 48.2 °F - 46.4 °F 93% 29.71 in 6.2 mi West 12.7 mph - N/A   Mostly Cloudy
8:50 AM 49 °F - 49 °F 100% 29.73 in 17 mi West 12.7 mph - -   Partly Cloudy
8:50 AM 48.2 °F - 46.4 °F 93% 29.71 in 6.2 mi West 13.8 mph - N/A   Mostly Cloudy
9:20 AM 50.0 °F - 48.2 °F 94% 29.71 in 6.2 mi West 11.5 mph - N/A   Mostly Cloudy
9:50 AM 50.0 °F - 48.2 °F 94% 29.71 in 6.2 mi West 9.2 mph - N/A   Mostly Cloudy
10:20 AM 48.2 °F - 46.4 °F 93% 29.71 in 6.2 mi SW 5.8 mph - N/A   Mostly Cloudy
10:50 AM 50.0 °F - 48.2 °F 94% 29.68 in 6.2 mi SW 8.1 mph - N/A   Light Drizzle
11:20 AM 50.0 °F - 48.2 °F 94% 29.68 in 6.2 mi WSW 10.4 mph - N/A   Mostly Cloudy
11:50 AM 50 °F - 50 °F 100% 29.69 in 4 mi WSW 13.8 mph - - Rain Rain
11:50 AM 50.0 °F - 48.2 °F 94% 29.68 in 6.2 mi WSW 10.4 mph - N/A Rain Light Rain
12:20 PM 50.0 °F - 48.2 °F 94% 29.68 in 2.5 mi West 15.0 mph - N/A Rain Rain
12:50 PM 50.0 °F - 48.2 °F 94% 29.68 in 6.2 mi West 16.1 mph - N/A   Scattered Clouds
1:20 PM 50.0 °F - 48.2 °F 94% 29.68 in 6.2 mi West 16.1 mph - N/A   Scattered Clouds
1:50 PM 50.0 °F - 46.4 °F 87% 29.68 in 6.2 mi West 18.4 mph - N/A   Scattered Clouds
2:20 PM 46.4 °F 39.5 °F 44.6 °F 93% 29.68 in 6.2 mi NW 17.3 mph - N/A   Mostly Cloudy
2:50 PM 46.4 °F 39.5 °F 42.8 °F 87% 29.68 in 6.2 mi WNW 17.3 mph - N/A   Scattered Clouds
3:20 PM 44.6 °F 36.6 °F 39.2 °F 81% 29.68 in 6.2 mi West 19.6 mph - N/A   Scattered Clouds
3:50 PM 44.6 °F 36.9 °F 39.2 °F 81% 29.71 in 6.2 mi West 18.4 mph - N/A   Partly Cloudy
4:20 PM 42.8 °F 35.4 °F 39.2 °F 87% 29.71 in 6.2 mi West 15.0 mph - N/A   Partly Cloudy
4:50 PM 42.8 °F 36.6 °F 37.4 °F 81% 29.71 in 6.2 mi West 11.5 mph - N/A   Partly Cloudy
5:20 PM 42.8 °F 37.0 °F 37.4 °F 81% 29.71 in 6.2 mi West 10.4 mph - N/A   Partly Cloudy
5:50 PM 41 °F - 37 °F 80% 29.71 in 22 mi West 12.7 mph - -  
5:50 PM 41.0 °F 34.7 °F 35.6 °F 81% 29.68 in - West 10.4 mph - N/A   Clear
8:50 PM 39 °F - 37 °F 88% 29.67 in 16 mi WSW 6.9 mph - -   Overcast
8:50 PM 39.2 °F 35.0 °F 35.6 °F 87% 29.65 in - West 5.8 mph - N/A   Clear
9:20 PM 39.2 °F 35.0 °F 35.6 °F 87% 29.65 in - WSW 5.8 mph - N/A   Clear
9:50 PM 39.2 °F 35.0 °F 35.6 °F 87% 29.65 in - West 5.8 mph - N/A   Clear
11:50 PM 36 °F - 36 °F 98% 29.64 in 12 mi WSW 10.4 mph - -